Home > Time Zones > World Clock > Weather > Belgium > Spa > Past weeks

Flag for Belgium Weather past 2 weeks in Spa, Belgium

Now
45 °F

Overcast.


Feels Like: 42 °F
Forecast: 42 / 66 °F
Wind: 6 mph from Southwest

Location: Spa / La Sauveniere

Current Time: May 7, 2015 at 5:48:44 AM

Latest Report: May 7, 2015 at 4:00 AM


Visibility: 22 mi

Pressure: 30.04 "Hg

Humidity: 86%

Dew point: 41 °F

Location of SpaLocation

Historic Weather in Spa — Graph

°F

Spa temperature yesterday

Maximum temperature yesterday: 55 °F (at 12:00 PM)
Minimum temperature yesterday: 44 °F (at 7:00 AM)
Average temperature yesterday: 50 °F

Past Weeks' High & Low Weather Summary

 TemperatureHumidityPressure
High66 °F (May 5, 1:00 PM)100% (Apr 27, 7:00 AM)30.45 "Hg (Apr 27, 7:00 AM)
Low31 °F (Apr 28, 6:00 AM)25% (Apr 24, 2:00 PM)29.44 "Hg (May 5, 3:00 AM)
Average49 °F75%29.89 "Hg
* Reported Apr 22 4:00 AM — May 7 4:00 AM, Spa, Weather by CustomWeather, © 2015

Note: Actual official high and low records may vary slightly from our data, if they occured in-between our weather recording intervals... More about our weather records

Advertising

Spa weather history for previous 24 hours

 ConditionsComfort  
Time TempWeatherWind HumidityBarometerVisibility
4:00 AM
Thu, May 7
45 °FOvercast.6 mph86%30.04 "Hg22 mi
3:00 AM46 °FOvercast.7 mph86%30.03 "Hg28 mi
2:00 AM46 °FOvercast.6 mph83%30.03 "Hg28 mi
10:00 PM
Wed, May 6
46 °FPassing clouds.6 mph84%30.00 "Hg31 mi
9:00 PM49 °FPartly sunny.3 mph73%29.96 "Hg28 mi
8:00 PM52 °FOvercast.7 mph60%29.95 "Hg25 mi
7:00 PM54 °FPartly sunny.8 mph55%29.92 "Hg19 mi
6:00 PM55 °FPassing clouds.8 mph56%29.91 "Hg19 mi
5:00 PM54 °FScattered clouds.9 mph63%29.89 "Hg19 mi
4:00 PM45 °FLow clouds.6 mph91%29.93 "Hg14 mi
3:00 PM51 °FPartly sunny.7 mph85%29.90 "Hg19 mi
2:00 PM48 °FLight rain. Overcast.7 mph85%29.92 "Hg6 mi
1:00 PM55 °FPartly sunny.9 mph50%29.89 "Hg19 mi
12:00 PM55 °FPartly sunny.9 mph53%29.89 "Hg19 mi
11:00 AM52 °FPassing clouds.8 mph59%29.90 "Hg19 mi
10:00 AM49 °FScattered clouds.7 mph64%29.91 "Hg18 mi
9:00 AM48 °FSunny.7 mph73%29.92 "Hg16 mi
8:00 AM46 °FSunny.6 mph80%29.91 "Hg17 mi
7:00 AM44 °FSunny.5 mph82%29.90 "Hg19 mi
6:00 AM44 °FClear.5 mph84%29.89 "Hg18 mi
Weather by CustomWeather, © 2015

See weather overviewHow to use our weather pages